Weather History for KLIC - July, 2013

Change the Weather History Date:

Friday, July 12, 2013

  Actual Average Record
Temperature  
Mean Temperature 75 °F -  
Max Temperature 96 °F - 97 °F (2004)
Min Temperature 54 °F - 48 °F (2002)
Degree Days  
Heating Degree Days 0    
Month to date heating degree days 5  
Cooling Degree Days 10    
Month to date cooling degree days 78  
Growing Degree Days 24 (Base 50)    
Moisture  
Dew Point 53 °F    
Average Humidity 57    
Maximum Humidity 93    
Minimum Humidity 20    
Precipitation  
Precipitation 0.00 in - 0.23 in (2001)
Month to date precipitation 0.41  
Year to date precipitation 6.97  
Sea Level Pressure  
Sea Level Pressure 29.81 in    
Wind  
Wind Speed 6 mph (NNE)    
Max Wind Speed 26 mph    
Max Gust Speed 32 mph    
Visibility 10 miles    
Events Thunderstorm    
T = Trace of Precipitation, MM = Missing Value Source: NWS Daily Summary

Daily Weather History Graph

Daily Weather History Graph

Search for Another Location

Airport or City:

Trip Planner

Search our weather history database for the weather conditions in past years. The results will help you decide how hot, cold, wet, or windy it might be!

Date:

Astronomy

Jul. 12, 2013 Rise Set
Actual Time 5:38 AM MDT 8:21 PM MDT
Civil Twilight 5:07 AM MDT 8:53 PM MDT
Nautical Twilight 4:27 AM MDT 9:32 PM MDT
Astronomical Twilight 3:42 AM MDT 10:17 PM MDT
Moon 9:55 AM MDT (7/12) 10:35 PM MDT (7/12)
Length of Visible Light 15h 46m
Length of Day
14h 43m
Waxing Crescent, 18% of the Moon is Illuminated
Jul 12
Waxing Crescent
Jul 15
First Quarter
Jul 22
Full
Jul 29
Last Quarter
Aug 6
New

Hourly Weather History & Observations

Time (MDT) Temp. Heat Index Dew Point Humidity Pressure Visibility Wind Dir Wind Speed Gust Speed Precip Events Conditions
12:55 AM 66.0 °F - 60.1 °F 81% 29.79 in 10.0 mi SE 9.2 mph - N/A   Clear
1:55 AM 64.0 °F - 59.0 °F 84% 29.79 in 10.0 mi Calm Calm - N/A   Clear
2:55 AM 61.0 °F - 57.9 °F 90% 29.78 in 10.0 mi Calm Calm - N/A   Clear
3:55 AM 57.0 °F - 55.9 °F 96% 29.79 in 10.0 mi Calm Calm - N/A   Clear
4:55 AM 57.0 °F - 55.0 °F 93% 29.79 in 10.0 mi Calm Calm - N/A   Clear
5:55 AM 55.0 °F - 54.0 °F 96% 29.81 in 10.0 mi North 3.5 mph - N/A   Clear
6:55 AM 63.0 °F - 57.9 °F 84% 29.80 in 10.0 mi Calm Calm - N/A   Clear
7:55 AM 69.1 °F - 57.9 °F 68% 29.79 in 10.0 mi Calm Calm - N/A   Clear
8:55 AM 75.0 °F - 57.0 °F 53% 29.80 in 10.0 mi Calm Calm - N/A   Clear
9:55 AM 84.0 °F 82.5 °F 53.1 °F 34% 29.78 in 10.0 mi Calm Calm - N/A   Clear
10:55 AM 90.0 °F - 48.0 °F 24% 29.76 in 10.0 mi North 11.5 mph - N/A   Clear
11:55 AM 91.0 °F - 48.9 °F 23% 29.76 in 10.0 mi NNE 9.2 mph - N/A   Clear
12:55 PM 93.0 °F - 50.0 °F 23% 29.75 in 10.0 mi East 8.1 mph - N/A   Clear
1:55 PM 93.9 °F - 48.0 °F 21% 29.73 in 10.0 mi Variable 6.9 mph - N/A   Clear
2:55 PM 91.0 °F - 46.0 °F 21% 29.74 in 10.0 mi Variable 3.5 mph - N/A   Partly Cloudy
3:55 PM 91.9 °F - 50.0 °F 24% 29.73 in 10.0 mi SE 13.8 mph 20.7 mph N/A   Clear
4:10 PM 91.4 °F - 48.2 °F 23% 29.99 in 10.0 mi SSE 11.5 mph - N/A Thunderstorm Clear
4:50 PM 91.4 °F - 46.4 °F 21% 29.98 in 10.0 mi SSE 9.2 mph - N/A   Clear
4:55 PM 91.9 °F - 45.0 °F 20% 29.73 in 10.0 mi South 11.5 mph - N/A   Clear
5:55 PM 91.0 °F - 45.0 °F 20% 29.75 in 10.0 mi SW 9.2 mph - N/A   Scattered Clouds
6:16 PM 78.8 °F - 55.4 °F 44% 30.01 in 10.0 mi NNW 24.2 mph 32.2 mph N/A   Mostly Cloudy
6:55 PM 75.9 °F - 55.0 °F 48% 29.80 in 10.0 mi North 18.4 mph 27.6 mph N/A   Scattered Clouds
7:55 PM 73.9 °F - 55.9 °F 53% 29.84 in 10.0 mi NNW 13.8 mph - N/A   Scattered Clouds
8:55 PM 73.0 °F - 55.0 °F 53% 29.84 in 10.0 mi NNW 12.7 mph - N/A   Clear
9:55 PM 69.1 °F - 57.0 °F 65% 29.84 in 10.0 mi NNW 9.2 mph - N/A   Clear
10:55 PM 68.0 °F - 57.0 °F 68% 29.84 in 10.0 mi NNW 10.4 mph - N/A   Clear
11:55 PM 68.0 °F - 57.0 °F 68% 29.85 in 10.0 mi North 12.7 mph - N/A   Clear